{"data":{"norad_id":67213,"epoch":"2026-09-19T19:00:39.481632Z","epoch_age_seconds":136530,"freshness":"FRESH","line1":"1 67213U 25304X   26262.79212363  .00009950  00000+0  83983-3 0  9990","line2":"2 67213  70.0016  44.8761 0002971 270.7874  89.2945 14.98360925 42964","mean_motion":14.98360925,"eccentricity":0.0002971,"inclination_deg":70.0016,"raan_deg":44.8761,"arg_perigee_deg":270.7874,"mean_anomaly_deg":89.2945,"bstar":0.00083983,"rev_number":4296,"period_min":96.105015552244,"perigee_km":569.89538568194,"apogee_km":574.02513347358,"semimajor_km":6950.0972595778,"source":"CELESTRAK","updated_at":"2026-09-20T09:00:43.483900Z"}}